| time (UTC) | temp F | wind direction | speed MPH | gust MPH | rain 1hr in | rain 24hr in | rain mn in | humidity % | barometer mb |
| 20260507165316 | 65 | 203 | 6.0 | 11.0 | 0.00 | 0.00 | 0.00 | 52 | 1014.5 |
| 20260507164316 | 64 | 68 | 3.0 | 4.0 | 0.00 | 0.00 | 0.00 | 54 | 1014.6 |
| 20260507163316 | 64 | 203 | 4.0 | 13.0 | 0.00 | 0.00 | 0.00 | 54 | 1014.9 |
| 20260507162316 | 64 | 180 | 4.0 | 11.0 | 0.00 | 0.00 | 0.00 | 53 | 1014.9 |
| 20260507161316 | 63 | 23 | 3.0 | 6.0 | 0.00 | 0.00 | 0.00 | 55 | 1014.9 |
| 20260507160316 | 63 | 225 | 6.0 | 13.0 | 0.00 | 0.00 | 0.00 | 56 | 1015.0 |
| 20260507155316 | 63 | 135 | 6.0 | 14.0 | 0.00 | 0.00 | 0.00 | 55 | 1015.1 |
| 20260507154316 | 62 | 158 | 3.0 | 5.0 | 0.00 | 0.00 | 0.00 | 58 | 1015.0 |
| 20260507153336 | 62 | 203 | 5.0 | 10.0 | 0.00 | 0.00 | 0.00 | 58 | 1015.2 |
| 20260507152316 | 62 | 203 | 3.0 | 9.0 | 0.00 | 0.00 | 0.00 | 58 | 1015.2 |
| 20260507151316 | 62 | 180 | 2.0 | 5.0 | 0.00 | 0.00 | 0.00 | 58 | 1015.3 |
| 20260507150316 | 60 | 113 | 3.0 | 7.0 | 0.00 | 0.00 | 0.00 | 58 | 1015.3 |
| 20260507145316 | 60 | 248 | 5.0 | 7.0 | 0.00 | 0.00 | 0.00 | 60 | 1015.4 |
| 20260507144316 | 59 | 113 | 3.0 | 7.0 | 0.00 | 0.00 | 0.00 | 61 | 1015.5 |
| 20260507143316 | 58 | 158 | 4.0 | 12.0 | 0.00 | 0.00 | 0.00 | 62 | 1015.4 |
| 20260507142316 | 57 | 0.0 | 1.0 | 0.00 | 0.00 | 0.00 | 64 | 1015.4 | |
| 20260507141336 | 56 | 45 | 1.0 | 4.0 | 0.00 | 0.00 | 0.00 | 66 | 1015.6 |
| 20260507140316 | 55 | 225 | 3.0 | 5.0 | 0.00 | 0.00 | 0.00 | 66 | 1015.5 |
| 20260507135316 | 55 | 225 | 1.0 | 2.0 | 0.00 | 0.00 | 0.00 | 69 | 1015.4 |
| 20260507134316 | 54 | 0.0 | 1.0 | 0.00 | 0.00 | 0.00 | 70 | 1015.6 | |
| 20260507133315 | 53 | 113 | 3.0 | 6.0 | 0.00 | 0.00 | 0.00 | 69 | 1015.6 |
| 20260507132316 | 53 | 248 | 2.0 | 4.0 | 0.00 | 0.00 | 0.00 | 70 | 1015.6 |
| 20260507131316 | 52 | 180 | 2.0 | 3.0 | 0.00 | 0.00 | 0.00 | 72 | 1015.7 |
| 20260507130315 | 50 | 180 | 2.0 | 5.0 | 0.00 | 0.00 | 0.00 | 74 | 1016.0 |
| 20260507125336 | 50 | 0.0 | 1.0 | 0.00 | 0.00 | 0.00 | 75 | 1016.0 | |
| 20260507124316 | 49 | 135 | 1.0 | 3.0 | 0.00 | 0.00 | 0.00 | 75 | 1016.0 |
| 20260507123315 | 48 | 203 | 1.0 | 2.0 | 0.00 | 0.00 | 0.00 | 75 | 1016.0 |
| 20260507122316 | 47 | 0.0 | 1.0 | 0.00 | 0.00 | 0.00 | 76 | 1015.9 | |
| 20260507121315 | 47 | 0.0 | 1.0 | 0.00 | 0.00 | 0.00 | 77 | 1015.9 | |
| 20260507120316 | 46 | 0.0 | 1.0 | 0.00 | 0.00 | 0.00 | 77 | 1015.8 | |
| 20260507115316 | 46 | 0.0 | 1.0 | 0.00 | 0.00 | 0.00 | 78 | 1015.8 | |
| 20260507114315 | 45 | 0.0 | 1.0 | 0.00 | 0.00 | 0.00 | 79 | 1015.8 | |
| 20260507113315 | 44 | 225 | 1.0 | 2.0 | 0.00 | 0.00 | 0.00 | 80 | 1015.8 |
| 20260507112315 | 44 | 0.0 | 0.0 | 0.00 | 0.00 | 0.00 | 79 | 1015.8 | |
| 20260507111336 | 44 | 0.0 | 0.0 | 0.00 | 0.00 | 0.00 | 79 | 1015.8 | |
| 20260507110316 | 44 | 0.0 | 0.0 | 0.00 | 0.00 | 0.00 | 78 | 1015.8 | |
| 20260507105315 | 44 | 0.0 | 1.0 | 0.00 | 0.00 | 0.00 | 78 | 1015.7 | |
| 20260507104315 | 44 | 0.0 | 0.0 | 0.00 | 0.00 | 0.00 | 78 | 1015.7 | |
| 20260507103315 | 44 | 0.0 | 0.0 | 0.00 | 0.00 | 0.00 | 78 | 1015.7 | |
| 20260507102315 | 44 | 0.0 | 0.0 | 0.00 | 0.00 | 0.00 | 77 | 1015.7 | |
| 20260507101336 | 44 | 0.0 | 0.0 | 0.00 | 0.00 | 0.00 | 76 | 1015.8 | |
| 20260507100317 | 44 | 0.0 | 1.0 | 0.00 | 0.00 | 0.00 | 75 | 1015.9 | |
| 20260507095315 | 44 | 0.0 | 0.0 | 0.00 | 0.00 | 0.00 | 75 | 1016.0 | |
| 20260507094317 | 44 | 0.0 | 1.0 | 0.00 | 0.00 | 0.00 | 74 | 1016.0 | |
| 20260507093317 | 44 | 0.0 | 0.0 | 0.00 | 0.00 | 0.00 | 75 | 1016.0 | |
| 20260507092315 | 44 | 0.0 | 0.0 | 0.00 | 0.00 | 0.00 | 75 | 1016.0 | |
| 20260507091337 | 44 | 0.0 | 0.0 | 0.00 | 0.00 | 0.00 | 76 | 1016.1 | |
| 20260507090317 | 43 | 0.0 | 0.0 | 0.00 | 0.00 | 0.00 | 76 | 1016.0 | |
| 20260507085317 | 43 | 0.0 | 0.0 | 0.00 | 0.00 | 0.00 | 76 | 1016.0 | |
| 20260507084317 | 43 | 0.0 | 0.0 | 0.00 | 0.00 | 0.00 | 78 | 1016.1 | |
| 20260507083317 | 43 | 0.0 | 0.0 | 0.00 | 0.00 | 0.00 | 78 | 1016.1 | |
| 20260507082317 | 43 | 0.0 | 0.0 | 0.00 | 0.00 | 0.00 | 78 | 1016.2 | |
| 20260507081317 | 44 | 0.0 | 0.0 | 0.00 | 0.00 | 0.00 | 76 | 1016.1 | |
| 20260507080317 | 45 | 0.0 | 0.0 | 0.00 | 0.00 | 0.00 | 74 | 1016.0 | |
| 20260507075317 | 45 | 0.0 | 0.0 | 0.00 | 0.00 | 0.00 | 74 | 1016.1 | |
| 20260507074337 | 45 | 0.0 | 0.0 | 0.00 | 0.00 | 0.00 | 73 | 1016.1 | |
| 20260507073317 | 46 | 0.0 | 1.0 | 0.00 | 0.00 | 0.00 | 72 | 1016.2 | |
| 20260507072317 | 46 | 0.0 | 0.0 | 0.00 | 0.00 | 0.00 | 70 | 1016.3 | |
| 20260507071317 | 46 | 0.0 | 0.0 | 0.00 | 0.00 | 0.00 | 69 | 1016.4 | |
| 20260507070317 | 47 | 0.0 | 0.0 | 0.00 | 0.00 | 0.00 | 67 | 1016.5 | |
| 20260507065337 | 47 | 0.0 | 0.0 | 0.00 | 0.00 | 0.00 | 66 | 1016.6 | |
| 20260507064317 | 48 | 0.0 | 0.0 | 0.00 | 0.00 | 0.00 | 65 | 1016.8 | |
| 20260507063317 | 49 | 0.0 | 1.0 | 0.00 | 0.00 | 0.00 | 63 | 1016.9 | |
| 20260507062317 | 50 | 0.0 | 0.0 | 0.00 | 0.00 | 0.00 | 61 | 1016.8 | |
| 20260507061317 | 50 | 0.0 | 1.0 | 0.00 | 0.00 | 0.00 | 61 | 1016.9 | |
| 20260507060317 | 50 | 0.0 | 1.0 | 0.00 | 0.01 | 0.00 | 60 | 1016.9 | |
| 20260507055316 | 50 | 0.0 | 0.0 | 0.00 | 0.01 | 0.00 | 62 | 1017.0 | |
| 20260507054317 | 49 | 0.0 | 2.0 | 0.00 | 0.01 | 0.00 | 64 | 1016.8 | |
| 20260507053316 | 48 | 0.0 | 0.0 | 0.00 | 0.01 | 0.00 | 69 | 1016.9 | |
| 20260507052317 | 48 | 0.0 | 0.0 | 0.00 | 0.02 | 0.00 | 72 | 1016.9 | |
| 20260507051316 | 47 | 0.0 | 0.0 | 0.00 | 0.02 | 0.00 | 74 | 1016.9 | |
| 20260507050317 | 47 | 0.0 | 0.0 | 0.00 | 0.03 | 0.00 | 75 | 1016.8 | |
| 20260507045336 | 47 | 0.0 | 0.0 | 0.00 | 0.03 | 0.03 | 76 | 1016.8 | |
| 20260507044316 | 47 | 0.0 | 0.0 | 0.00 | 0.03 | 0.03 | 76 | 1016.8 | |
| 20260507043316 | 46 | 0.0 | 0.0 | 0.00 | 0.04 | 0.03 | 75 | 1016.6 | |
| 20260507042316 | 46 | 0.0 | 0.0 | 0.00 | 0.04 | 0.03 | 74 | 1016.7 | |
| 20260507041316 | 46 | 0.0 | 0.0 | 0.00 | 0.04 | 0.03 | 75 | 1016.9 | |
| 20260507040316 | 46 | 0.0 | 0.0 | 0.00 | 0.04 | 0.03 | 74 | 1017.0 | |
| 20260507035316 | 45 | 0.0 | 0.0 | 0.00 | 0.05 | 0.03 | 74 | 1017.0 | |
| 20260507034316 | 45 | 0.0 | 0.0 | 0.00 | 0.05 | 0.03 | 75 | 1017.0 | |
| 20260507033316 | 45 | 0.0 | 0.0 | 0.00 | 0.05 | 0.03 | 73 | 1016.9 | |
| 20260507032336 | 46 | 0.0 | 0.0 | 0.00 | 0.05 | 0.03 | 73 | 1016.9 | |
| 20260507031316 | 46 | 0.0 | 0.0 | 0.00 | 0.05 | 0.03 | 71 | 1016.9 | |
| 20260507030316 | 46 | 0.0 | 0.0 | 0.00 | 0.05 | 0.03 | 69 | 1016.9 | |
| 20260507025316 | 46 | 0.0 | 0.0 | 0.00 | 0.05 | 0.03 | 69 | 1016.8 | |
| 20260507024316 | 46 | 0.0 | 0.0 | 0.00 | 0.05 | 0.03 | 67 | 1016.8 | |
| 20260507023316 | 47 | 0.0 | 0.0 | 0.00 | 0.05 | 0.03 | 65 | 1016.7 | |
| 20260507022316 | 47 | 0.0 | 0.0 | 0.00 | 0.05 | 0.03 | 64 | 1016.5 | |
| 20260507021316 | 48 | 0.0 | 0.0 | 0.00 | 0.05 | 0.03 | 62 | 1016.6 | |
| 20260507020316 | 48 | 0.0 | 0.0 | 0.00 | 0.05 | 0.03 | 61 | 1016.5 | |
| 20260507015336 | 49 | 0.0 | 0.0 | 0.00 | 0.05 | 0.03 | 59 | 1016.4 | |
| 20260507014315 | 50 | 0.0 | 0.0 | 0.00 | 0.05 | 0.03 | 56 | 1016.3 | |
| 20260507013316 | 50 | 0.0 | 0.0 | 0.00 | 0.05 | 0.03 | 53 | 1016.3 | |
| 20260507012336 | 52 | 0.0 | 0.0 | 0.00 | 0.05 | 0.03 | 51 | 1016.2 | |
| 20260507011315 | 53 | 0.0 | 0.0 | 0.00 | 0.05 | 0.03 | 50 | 1016.2 | |
| 20260507010315 | 54 | 0.0 | 0.0 | 0.00 | 0.05 | 0.03 | 46 | 1016.1 | |
| 20260507005316 | 55 | 0.0 | 0.0 | 0.00 | 0.05 | 0.03 | 43 | 1016.1 | |
| 20260507004335 | 56 | 0.0 | 0.0 | 0.00 | 0.05 | 0.03 | 41 | 1016.2 | |
| 20260507003315 | 57 | 0.0 | 0.0 | 0.00 | 0.05 | 0.03 | 38 | 1016.1 | |
| 20260507002315 | 58 | 0.0 | 0.0 | 0.00 | 0.05 | 0.03 | 37 | 1016.1 | |
| 20260507001315 | 58 | 0.0 | 2.0 | 0.00 | 0.05 | 0.03 | 36 | 1016.1 | |
| 20260507000315 | 59 | 0.0 | 0.0 | 0.00 | 0.05 | 0.03 | 34 | 1016.2 | |
| 20260506235315 | 59 | 45 | 1.0 | 3.0 | 0.00 | 0.05 | 0.03 | 34 | 1016.3 |
| 20260506234316 | 60 | 23 | 1.0 | 2.0 | 0.00 | 0.05 | 0.03 | 34 | 1016.2 |
| 20260506233315 | 60 | 68 | 2.0 | 4.0 | 0.00 | 0.05 | 0.03 | 33 | 1016.3 |
| 20260506232315 | 61 | 68 | 1.0 | 1.0 | 0.00 | 0.05 | 0.03 | 32 | 1016.3 |
| 20260506231315 | 62 | 203 | 1.0 | 3.0 | 0.00 | 0.05 | 0.03 | 32 | 1016.5 |
| 20260506230315 | 62 | 90 | 1.0 | 4.0 | 0.00 | 0.05 | 0.03 | 30 | 1016.3 |
| 20260506225315 | 63 | 338 | 2.0 | 6.0 | 0.00 | 0.05 | 0.03 | 32 | 1016.4 |
| 20260506224315 | 63 | 45 | 2.0 | 5.0 | 0.00 | 0.05 | 0.03 | 31 | 1016.5 |
| 20260506223315 | 63 | 0.0 | 0.0 | 0.00 | 0.05 | 0.03 | 35 | 1016.4 | |
| 20260506222317 | 64 | 68 | 1.0 | 4.0 | 0.00 | 0.05 | 0.03 | 30 | 1016.5 |
| 20260506221317 | 63 | 0.0 | 1.0 | 0.00 | 0.05 | 0.03 | 35 | 1016.6 | |
| 20260506220317 | 63 | 135 | 1.0 | 2.0 | 0.00 | 0.05 | 0.03 | 34 | 1016.5 |
| 20260506215337 | 64 | 0.0 | 1.0 | 0.00 | 0.05 | 0.03 | 35 | 1016.5 | |
| 20260506214358 | 63 | 68 | 1.0 | 2.0 | 0.00 | 0.05 | 0.03 | 32 | 1016.6 |
| 20260506213317 | 64 | 68 | 2.0 | 4.0 | 0.00 | 0.05 | 0.03 | 33 | 1016.8 |
| 20260506212317 | 64 | 203 | 2.0 | 5.0 | 0.00 | 0.05 | 0.03 | 35 | 1016.8 |
| 20260506211317 | 63 | 68 | 2.0 | 3.0 | 0.00 | 0.05 | 0.03 | 32 | 1017.1 |
| 20260506210317 | 64 | 68 | 1.0 | 2.0 | 0.00 | 0.05 | 0.03 | 36 | 1017.2 |
| 20260506205317 | 63 | 68 | 1.0 | 2.0 | 0.00 | 0.05 | 0.03 | 30 | 1017.4 |
| 20260506204317 | 62 | 23 | 2.0 | 4.0 | 0.00 | 0.05 | 0.03 | 36 | 1017.4 |
| 20260506203317 | 64 | 0.0 | 1.0 | 0.00 | 0.05 | 0.03 | 34 | 1017.6 | |
| 20260506202317 | 63 | 68 | 1.0 | 2.0 | 0.00 | 0.05 | 0.03 | 34 | 1017.7 |
| 20260506201317 | 62 | 0.0 | 2.0 | 0.00 | 0.05 | 0.03 | 34 | 1017.7 | |
| 20260506200317 | 62 | 45 | 3.0 | 4.0 | 0.00 | 0.05 | 0.03 | 33 | 1017.8 |
| 20260506195317 | 62 | 203 | 1.0 | 3.0 | 0.00 | 0.05 | 0.03 | 38 | 1018.0 |
| 20260506194317 | 61 | 45 | 2.0 | 4.0 | 0.00 | 0.05 | 0.03 | 35 | 1017.9 |
| 20260506193317 | 61 | 338 | 1.0 | 3.0 | 0.00 | 0.05 | 0.03 | 37 | 1017.8 |
| 20260506192337 | 62 | 68 | 1.0 | 2.0 | 0.00 | 0.05 | 0.03 | 36 | 1018.0 |
| 20260506191317 | 62 | 0.0 | 1.0 | 0.00 | 0.05 | 0.03 | 41 | 1018.1 | |
| 20260506190317 | 59 | 0 | 1.0 | 2.0 | 0.00 | 0.05 | 0.03 | 36 | 1018.0 |
| 20260506185317 | 60 | 68 | 3.0 | 5.0 | 0.00 | 0.05 | 0.03 | 32 | 1018.2 |
| 20260506184317 | 60 | 0.0 | 1.0 | 0.00 | 0.05 | 0.03 | 42 | 1018.3 | |
| 20260506183317 | 60 | 338 | 1.0 | 3.0 | 0.00 | 0.05 | 0.03 | 34 | 1018.5 |
| 20260506182317 | 60 | 68 | 2.0 | 6.0 | 0.00 | 0.05 | 0.03 | 36 | 1018.6 |
| 20260506181317 | 60 | 45 | 3.0 | 10.0 | 0.00 | 0.05 | 0.03 | 35 | 1018.7 |
| 20260506180316 | 59 | 68 | 1.0 | 3.0 | 0.00 | 0.05 | 0.03 | 37 | 1018.8 |
| 20260506175317 | 59 | 68 | 1.0 | 5.0 | 0.00 | 0.06 | 0.03 | 42 | 1018.7 |
| 20260506174317 | 59 | 68 | 2.0 | 3.0 | 0.00 | 0.06 | 0.03 | 39 | 1018.8 |
| 20260506173316 | 58 | 68 | 2.0 | 4.0 | 0.00 | 0.06 | 0.03 | 35 | 1018.8 |
| 20260506172317 | 59 | 45 | 2.0 | 5.0 | 0.00 | 0.06 | 0.03 | 33 | 1018.8 |
| 20260506171316 | 59 | 68 | 1.0 | 4.0 | 0.00 | 0.06 | 0.03 | 36 | 1019.0 |
| 20260506170316 | 60 | 90 | 1.0 | 3.0 | 0.00 | 0.06 | 0.03 | 38 | 1018.9 |
| 20260506165357 | 59 | 135 | 2.0 | 6.0 | 0.00 | 0.06 | 0.03 | 40 | 1018.9 |